This is the latest recevied weather packets stored in our database for station/object VK3XEM-13. If no packets are shown the sender has not sent any weather packets the latest 10 day(s).
| Time | Temp. | Humidity | Pressure | Rain* | Wind** | Luminosity | Snow |
|---|---|---|---|---|---|---|---|
| 1778138234 | 9.44° C | 89% | 1019.5 hPa | 0 mm | - | 8 W/m² | - |
| 1778137336 | 9.44° C | 88% | 1019.5 hPa | 0.25 mm | - | 7 W/m² | - |
| 1778136435 | 9.44° C | 86% | 1019.5 hPa | 0.25 mm | - | 32 W/m² | - |
| 1778135534 | 9.44° C | 85% | 1019.5 hPa | 0.25 mm | - | 47 W/m² | - |
| 1778134634 | 9.44° C | 86% | 1019.8 hPa | 0.25 mm | - | 43 W/m² | - |
| 1778133735 | 9.44° C | 87% | 1019.8 hPa | 0 mm | - | 23 W/m² | - |
| 1778132834 | 9.44° C | 87% | 1019.5 hPa | 1.02 mm | - | 65 W/m² | - |
| 1778131935 | 9.44° C | 88% | 1019.5 hPa | 1.02 mm | - | 36 W/m² | - |
| 1778131035 | 9.44° C | 89% | 1019.5 hPa | 1.27 mm | - | 121 W/m² | - |
| 1778130134 | 9.44° C | 87% | 1019.5 hPa | 1.52 mm | - | 107 W/m² | - |
| 1778129234 | 9.44° C | 86% | 1019.5 hPa | 0.51 mm | - | 92 W/m² | - |
| 1778128335 | 9.44° C | 86% | 1019.5 hPa | 0.51 mm | - | 216 W/m² | - |
| 1778127434 | 9.44° C | 86% | 1019.5 hPa | 0.25 mm | - | 114 W/m² | - |
| 1778126534 | 9.44° C | 86% | 1019.5 hPa | 0.25 mm | - | 158 W/m² | - |
| 1778125635 | 9.44° C | 85% | 1019.5 hPa | 0.51 mm | - | 252 W/m² | - |
| 1778124735 | 8.33° C | 86% | 1019.8 hPa | 1.78 mm | - | 324 W/m² | - |
| 1778123834 | 8.33° C | 90% | 1019.5 hPa | 1.78 mm | - | 149 W/m² | - |
| 1778122934 | 8.33° C | 91% | 1019.8 hPa | 1.78 mm | - | 155 W/m² | - |
| 1778122034 | 7.78° C | 91% | 1019.8 hPa | 1.78 mm | - | 474 W/m² | - |
| 1778121134 | 7.78° C | 89% | 1019.8 hPa | 1.52 mm | - | 104 W/m² | - |
| 1778120234 | 7.22° C | 91% | 1020.2 hPa | 1.78 mm | - | 252 W/m² | - |
| 1778119334 | 7.22° C | 92% | 1019.8 hPa | 2.03 mm | - | 746 W/m² | - |
| 1778118434 | 6.67° C | 92% | 1020.2 hPa | 1.52 mm | - | 70 W/m² | - |
| 1778117534 | 7.22° C | 92% | 1020.2 hPa | 1.27 mm | - | 52 W/m² | - |
| 1778116634 | 6.67° C | 91% | 1020.2 hPa | 1.27 mm | - | 84 W/m² | - |
* Rain latest hour (hover to see other rain measurements)
** Current wind speed in m/s (hover to see current wind gust speed)